Wind_Speed
7 7 7 7 7 7 8 8 8 8 9 10 11 12 13 14 15 15 16 16 17 18 19 19 20 21 22 23 25 25 26 27 28 29 29 29 28 28 29 29 30 31 31 31 31 30 29 27 25 22 21 20 19 19 18 18 19 19 19 19 19 19 19 19 19 19 19 20 19
8 8 7 7 7 8 8 8 8 8 9 10 11 12 13 14 15 15 16 17 17 18 19 19 20 21 23 23 24 25 26 27 28 29 29 29 28 28 29 29 30 30 31 31 32 31 29 27 24 22 20 19 18 17 17 18 18 18 18 18 18 18 17 17 18 18 18 18 18
8 8 8 8 8 8 8 8 9 9 10 11 11 12 13 14 14 15 16 17 18 18 19 20 20 21 22 23 24 25 26 27 28 28 28 28 28 29 29 29 30 30 31 31 31 30 29 27 24 21 19 17 16 17 17 17 17 17 17 17 17 16 16 16 16 16 16 16 16
9 9 8 8 8 8 9 9 9 10 11 11 11 12 13 14 15 15 16 18 18 18 19 20 21 21 22 23 24 25 26 26 27 28 28 28 28 29 29 30 30 31 31 31 31 31 30 27 23 19 17 16 16 16 16 17 17 16 16 16 16 15 15 15 14 14 15 15 16
9 9 8 8 9 9 9 9 10 11 11 11 12 12 13 14 15 16 17 18 18 19 19 20 20 21 22 23 24 25 26 26 26 27 27 28 28 28 29 30 30 30 30 30 30 30 28 26 22 18 16 15 14 15 15 16 16 16 16 15 15 14 14 14 14 14 15 15 15
9 9 9 9 9 9 9 10 10 11 11 11 12 13 14 15 16 17 18 18 19 19 19 20 20 20 22 23 24 24 25 25 26 26 27 28 28 28 29 30 30 30 30 30 29 28 27 25 21 17 16 15 15 15 15 15 16 16 16 15 14 14 14 14 15 15 15 16 16
9 9 9 9 9 9 9 10 11 11 11 11 12 13 15 16 17 18 18 19 18 18 19 19 19 21 22 23 23 24 24 25 26 27 27 27 28 29 29 30 30 30 30 29 28 28 26 24 20 18 17 16 15 14 14 14 15 15 15 15 15 14 14 15 16 16 17 18 18
9 9 9 9 9 9 10 11 11 11 11 11 12 14 15 16 17 18 18 18 18 18 18 19 20 21 22 22 23 23 24 24 25 26 27 27 28 29 29 30 30 30 30 28 28 27 26 23 21 20 19 17 16 15 15 15 15 15 15 15 15 15 16 16 17 18 18 19 19
9 9 9 9 9 9 10 11 11 11 11 12 13 14 15 16 17 18 18 18 18 18 18 19 20 21 21 22 22 22 23 24 25 26 27 27 27 28 29 29 30 30 30 28 27 26 25 22 22 22 22 21 19 17 16 16 16 16 16 15 15 15 16 16 18 19 19 19 20
9 9 9 9 9 10 10 11 11 11 11 12 13 14 15 16 16 17 17 17 18 18 19 19 20 20 21 21 21 22 22 23 24 25 26 27 27 28 28 29 29 30 30 28 27 26 24 22 22 23 24 24 22 20 18 16 15 15 15 14 14 15 15 16 18 19 20 20 20
8 8 8 9 9 10 11 11 11 11 11 11 13 14 15 15 16 16 17 17 18 19 19 19 19 20 20 20 21 22 22 23 23 25 26 26 27 27 28 28 29 29 29 28 26 25 24 23 23 24 25 25 24 23 21 19 15 13 12 12 13 14 15 15 16 17 18 19 19
8 8 8 9 10 10 11 11 11 11 11 11 13 14 14 15 16 16 17 18 18 18 18 18 19 19 19 19 21 21 22 23 23 24 25 26 27 27 27 28 28 29 29 27 25 24 24 24 24 24 25 25 25 25 25 23 19 14 12 11 11 12 13 13 14 14 15 16 17
8 8 8 9 10 10 10 11 11 10 11 12 13 13 14 15 15 16 17 17 18 18 18 18 18 18 18 19 20 21 22 22 23 23 24 25 26 27 27 27 28 28 28 27 25 24 24 24 24 24 25 25 25 26 26 26 24 20 16 13 11 11 11 12 13 13 14 14 15
8 8 9 9 10 10 10 10 10 10 11 12 13 13 14 15 15 16 16 17 18 18 18 18 18 18 18 19 20 21 21 22 22 23 24 25 26 27 27 27 27 28 28 27 24 23 24 24 24 24 24 24 25 26 26 27 26 25 22 18 15 13 13 14 15 15 14 13 13
8 8 9 9 10 10 10 10 10 10 11 12 13 14 14 14 15 15 16 17 17 17 17 17 18 18 18 19 19 20 21 21 22 22 23 24 25 27 27 27 27 27 28 27 23 22 23 22 22 22 23 23 24 24 25 25 25 25 24 23 21 19 18 18 18 17 16 14 13
8 8 9 9 10 10 10 10 10 11 11 12 13 14 14 14 15 15 16 17 17 17 17 18 18 18 19 19 19 20 20 21 21 22 23 24 25 26 27 27 27 27 27 26 23 22 22 21 21 21 21 22 22 23 23 24 24 24 24 24 23 22 21 21 21 21 20 18 17
8 8 9 9 10 10 11 11 11 11 12 13 14 14 14 14 15 15 16 17 17 17 18 18 18 18 18 19 19 19 20 20 21 21 22 23 24 25 26 27 26 26 26 25 21 20 20 20 19 20 20 21 21 22 22 22 23 23 23 24 24 23 23 23 23 23 23 24 23
8 9 9 9 10 11 11 12 12 12 13 14 14 14 15 15 15 16 16 17 17 17 18 18 18 18 18 19 19 19 19 20 20 21 22 23 24 25 26 26 26 25 24 22 19 19 19 19 18 18 19 20 20 20 21 21 21 22 23 23 24 24 24 24 24 24 24 25 25
8 9 9 10 11 12 12 12 12 13 13 14 14 15 15 15 16 16 16 17 17 17 17 17 17 17 18 18 19 19 19 19 20 21 22 22 23 24 26 26 26 25 23 20 17 17 19 19 17 17 18 19 19 20 19 19 20 20 21 22 23 24 24 24 24 24 23 24 24
9 9 10 11 12 12 12 12 13 13 14 14 15 15 15 15 15 16 16 17 17 17 16 17 17 17 17 18 19 19 19 19 19 20 21 22 22 23 25 26 26 25 22 18 15 16 19 20 18 17 17 18 19 19 19 19 19 19 19 20 21 22 23 23 24 24 23 22 23
9 10 11 12 13 13 13 13 13 14 14 14 15 15 15 15 15 16 16 16 16 16 16 16 16 16 17 18 19 19 20 19 20 20 20 21 22 22 23 24 26 26 23 17 13 15 19 20 19 18 18 18 19 19 19 20 19 19 19 19 19 20 20 22 22 23 22 21 21
10 11 12 13 13 14 13 14 14 14 14 14 14 14 15 15 15 15 16 16 16 16 15 15 15 16 16 17 18 19 20 20 20 20 20 21 21 22 22 23 25 27 25 17 11 14 19 20 20 20 20 20 19 19 19 20 19 19 19 19 19 18 19 20 21 22 22 21 20
11 12 13 13 14 14 14 14 14 14 14 14 14 14 14 15 15 15 16 15 15 15 15 15 15 15 16 16 17 18 19 20 21 21 21 22 22 22 22 21 23 27 25 17 12 13 17 18 20 21 21 21 20 19 19 19 20 20 20 20 19 19 18 19 20 21 21 21 19
11 12 13 13 14 15 15 15 14 14 14 14 14 14 14 15 15 15 15 15 15 15 14 14 14 15 15 16 16 17 18 19 20 21 22 23 23 23 22 20 21 25 25 18 13 13 15 15 18 21 22 22 20 19 18 18 19 20 21 21 20 20 19 18 19 19 20 20 19
11 12 13 14 14 15 15 15 14 14 14 14 14 14 14 14 15 15 15 15 14 14 14 14 14 14 14 15 15 16 17 18 19 20 22 23 24 24 22 20 20 24 25 19 14 13 14 14 16 19 22 21 20 18 18 18 19 20 21 20 20 20 19 19 18 18 18 19 19
11 13 13 14 14 15 15 15 14 14 14 14 14 14 14 14 14 14 14 14 14 14 14 13 14 14 14 14 14 16 17 17 18 19 20 21 23 24 22 21 21 24 25 20 15 14 14 14 14 17 20 21 19 17 16 16 18 19 19 19 18 18 18 17 16 16 17 17 18
12 12 13 14 15 15 15 15 14 14 14 14 14 14 14 14 14 14 14 14 14 13 13 13 13 13 13 13 14 15 16 17 17 17 18 19 21 22 21 21 22 24 24 22 17 14 14 14 14 16 18 19 18 16 15 14 15 16 16 16 16 15 15 15 15 15 16 16 16
11 12 13 14 14 15 15 15 14 14 14 14 13 14 14 14 14 14 14 13 13 13 12 12 12 12 12 12 13 15 16 16 16 17 17 19 19 20 20 20 21 23 23 23 19 15 13 14 13 14 16 18 17 16 15 14 14 14 14 14 14 15 15 14 14 15 15 16 16
11 12 13 13 14 15 15 14 14 14 14 13 13 13 13 14 14 14 13 13 13 12 11 11 12 12 12 13 13 14 15 15 15 16 17 18 19 19 19 20 21 22 23 23 21 16 13 13 13 13 15 17 17 16 15 14 13 13 14 14 15 15 15 15 14 15 15 15 16
10 11 12 13 14 14 14 14 13 13 13 13 13 13 13 13 14 13 13 13 12 11 11 11 12 12 13 13 14 14 14 14 15 16 17 18 19 19 19 20 20 22 23 23 23 19 14 12 12 12 13 15 17 17 16 14 13 13 14 15 15 16 15 15 15 15 16 16 16
10 11 12 13 14 14 14 13 13 13 13 13 13 13 13 13 13 13 13 12 12 11 11 12 12 13 13 14 14 14 14 14 15 15 16 17 18 19 19 19 20 21 22 22 23 22 17 12 12 11 12 13 15 16 16 14 13 12 13 14 15 16 16 16 15 15 16 16 16
10 11 12 12 13 14 14 13 13 13 13 13 13 13 13 13 13 13 13 13 12 12 12 12 12 13 14 14 14 14 14 14 14 15 16 17 18 18 19 19 19 20 21 21 23 23 21 15 12 11 11 11 11 13 14 13 12 12 12 13 15 16 16 17 16 16 17 16 16
9 10 11 12 13 13 13 13 12 13 13 13 13 13 13 13 13 14 14 13 12 12 12 12 12 13 13 14 14 14 14 14 15 15 16 17 17 18 18 19 18 19 20 21 22 23 23 19 14 11 11 11 9 9 9 10 11 11 11 12 13 14 16 17 16 17 18 17 16
9 10 11 12 12 13 13 12 12 12 13 13 13 13 13 13 13 13 13 13 12 12 12 12 12 13 13 13 14 14 14 14 15 15 16 16 17 17 18 18 18 19 20 21 22 23 23 22 18 13 11 10 9 8 7 8 9 10 10 11 12 14 15 17 17 18 18 17 16
9 10 10 11 12 12 12 12 12 12 12 13 13 13 13 13 13 13 13 13 12 12 12 12 12 13 13 13 13 14 14 15 15 16 16 16 16 17 18 18 18 19 21 22 22 22 23 23 21 17 12 10 9 9 8 7 8 9 10 11 12 13 14 16 16 17 18 18 17
8 9 10 11 11 11 11 11 11 12 12 13 13 13 13 13 13 13 12 12 12 12 12 13 13 13 13 13 14 14 14 15 15 16 16 16 16 17 18 19 19 20 21 22 22 22 23 23 23 20 15 10 9 9 9 8 7 8 9 10 11 12 13 13 14 15 17 18 17
8 9 9 10 10 11 11 11 11 11 12 12 13 13 13 13 13 13 12 12 12 12 13 13 13 13 13 13 14 15 15 15 16 16 16 16 16 17 18 19 19 20 22 22 22 22 22 23 23 22 19 13 10 10 10 9 7 7 8 9 11 11 12 12 12 13 15 16 16
7 8 9 9 10 10 10 11 11 11 11 12 13 13 13 13 13 12 12 12 12 13 13 13 13 13 13 14 15 15 16 16 16 16 16 16 16 16 17 19 19 21 22 23 22 22 22 23 23 23 22 17 12 10 10 9 8 8 8 9 10 11 11 11 11 12 13 14 14
7 8 8 9 9 10 10 10 10 11 11 12 13 13 14 13 13 13 13 12 12 12 13 13 13 13 14 14 15 16 16 16 16 15 15 16 16 16 17 18 19 21 22 23 23 23 23 23 23 23 23 21 15 12 10 10 9 8 8 8 9 10 11 11 11 11 12 13 13
7 7 8 8 9 9 10 10 10 10 11 12 13 14 14 13 13 13 14 13 12 12 13 13 13 13 14 14 15 16 16 16 15 15 15 15 16 16 16 17 18 19 21 22 22 23 23 24 24 23 23 22 18 14 11 11 10 9 8 8 9 10 11 11 11 11 11 12 12
7 7 7 8 8 9 9 10 10 11 12 13 13 13 14 14 14 14 14 14 13 13 13 13 13 14 14 15 15 15 15 15 15 15 15 15 16 16 16 16 17 18 19 20 21 22 23 23 23 23 23 22 21 17 13 11 11 10 9 9 9 10 10 11 11 11 11 11 11
Wind_Direction
334 331 328 325 323 321 318 314 313 314 316 315 316 318 318 318 319 319 319 319 319 319 319 318 318 318 319 320 322 323 323 323 323 324 324 324 323 323 323 323 322 322 320 318 317 316 313 309 304 298 293 291 289 287 285 284 284 284 283 282 282 283 283 282 281 281 280 279 278
331 328 324 322 320 318 316 313 311 313 315 316 316 317 318 318 318 318 319 319 319 319 319 318 318 318 319 321 323 324 324 324 324 325 325 325 326 326 326 325 324 323 322 321 321 320 318 314 308 301 297 293 289 287 286 285 283 282 281 280 281 281 281 280 279 279 280 280 279
329 327 324 321 319 318 316 313 312 313 315 316 315 315 316 318 318 318 318 318 317 317 318 319 319 319 320 321 323 325 325 325 325 326 327 327 327 328 328 327 327 326 325 324 323 323 321 319 314 307 300 294 290 288 288 286 283 281 280 280 280 280 279 278 278 279 281 281 280
329 326 323 320 318 317 315 312 312 314 315 315 314 314 316 318 318 318 317 317 317 318 318 319 319 320 322 323 324 325 326 326 327 327 328 328 329 330 330 330 329 328 328 327 327 326 326 325 321 315 306 299 293 289 286 287 285 282 280 279 279 278 278 278 278 279 278 278 279
328 326 322 318 317 316 314 311 312 313 314 314 315 316 317 319 319 319 319 319 318 318 318 318 319 321 323 324 325 327 327 328 329 329 330 329 330 331 332 332 331 330 329 330 331 331 332 332 328 322 315 307 298 291 288 285 285 283 281 280 278 277 277 278 278 277 276 276 276
326 324 320 317 315 314 312 312 312 313 314 314 314 316 318 320 320 320 320 319 318 317 318 320 321 323 324 326 327 328 329 330 331 331 331 332 333 334 334 334 333 332 332 333 334 336 338 338 333 326 320 314 306 299 292 287 285 284 283 282 280 278 278 278 277 276 275 275 275
326 323 320 318 316 313 312 312 312 313 313 314 314 316 318 319 320 320 320 319 318 318 319 321 323 325 326 327 329 329 330 331 332 332 333 333 334 336 336 336 336 335 335 336 338 340 341 340 336 331 326 319 311 303 296 291 287 285 284 283 283 281 280 278 278 277 276 276 276
325 323 321 320 317 314 313 313 312 313 313 313 314 316 318 319 320 321 321 321 319 319 320 321 322 325 327 328 330 331 331 331 332 334 334 334 336 337 338 338 338 338 339 339 342 343 343 341 340 337 333 326 318 310 303 296 291 287 285 284 283 283 282 281 280 279 278 277 277
323 322 322 320 317 315 314 314 313 312 312 311 313 316 319 320 321 323 322 321 321 320 320 321 322 325 327 329 330 331 333 333 333 334 335 335 337 339 339 339 339 339 340 341 344 346 346 344 345 345 344 340 332 322 313 305 297 291 287 286 285 284 284 283 282 281 280 279 277
322 322 321 319 317 316 316 315 313 312 311 311 314 317 319 321 322 323 323 321 321 321 321 321 323 325 327 330 332 332 333 333 334 335 336 337 338 339 340 340 340 340 341 342 345 347 348 347 348 349 350 350 347 341 333 322 309 299 294 291 290 289 288 287 286 285 283 281 279
322 321 321 318 318 318 318 317 315 314 313 313 315 317 319 321 322 324 324 322 321 321 321 322 324 326 328 330 332 334 334 333 333 334 335 337 339 340 341 341 341 341 341 342 346 349 349 349 350 352 355 356 356 356 354 347 336 321 309 303 301 299 297 296 296 294 291 288 287
322 320 319 317 320 320 319 318 317 316 315 315 317 318 320 322 322 323 324 323 323 323 323 324 325 326 328 330 332 333 334 335 335 335 335 337 339 340 341 342 342 342 342 343 347 350 351 351 352 355 358 1 2 3 4 5 3 356 343 330 322 316 312 311 315 313 309 306 304
321 319 318 319 322 322 321 320 319 318 317 317 318 319 320 321 322 323 324 325 324 324 324 325 326 327 327 328 331 332 333 335 336 337 337 338 339 340 342 343 343 343 343 345 349 352 353 353 355 358 1 5 7 9 11 14 17 16 11 1 351 341 335 333 334 331 327 325 325
319 318 320 322 324 324 323 322 321 319 319 319 320 320 320 320 322 324 325 325 325 324 323 324 326 326 327 328 330 332 333 335 337 338 339 340 340 342 342 343 344 344 344 346 349 353 356 358 359 1 4 8 11 14 17 20 22 22 20 14 7 360 353 349 345 340 334 333 344
317 318 322 325 327 326 325 324 322 321 320 320 321 321 321 320 321 323 324 324 324 324 324 324 325 326 327 329 330 331 334 336 338 339 341 341 342 343 343 343 344 345 345 346 349 353 358 1 2 4 7 10 13 16 19 22 24 24 23 20 15 10 5 0 358 354 346 339 354
316 319 322 325 326 327 327 326 324 323 322 321 321 322 321 320 320 321 323 324 325 325 325 325 326 326 327 330 331 333 334 336 339 341 341 342 343 343 344 344 345 345 345 346 348 353 358 4 6 8 10 12 15 18 20 22 23 24 23 22 20 18 15 12 11 9 4 358 1
316 318 321 323 325 327 327 327 325 323 322 321 321 321 321 320 320 321 323 325 325 325 325 326 327 326 327 329 332 334 335 336 338 341 342 342 343 343 343 344 344 344 345 347 348 352 357 4 9 11 13 15 17 19 21 22 22 22 22 22 22 22 20 19 18 17 16 14 12
317 318 320 322 324 326 327 326 324 322 321 321 321 320 320 320 321 321 323 325 325 325 324 326 327 327 327 329 331 333 334 335 337 339 341 342 342 343 344 344 344 345 345 348 349 352 357 4 9 13 16 18 20 22 23 24 23 22 21 21 21 22 22 21 21 20 19 18 17
318 319 321 323 325 326 326 324 323 322 321 321 320 320 320 320 320 320 322 324 326 325 324 325 326 327 328 329 331 332 334 335 336 338 340 341 342 344 345 345 345 345 346 348 350 355 1 6 11 16 19 21 22 23 24 25 24 23 22 22 21 22 22 22 21 21 19 18 17
318 320 322 324 326 326 324 322 322 322 322 321 320 319 319 319 320 321 322 324 326 326 325 326 325 327 329 330 332 333 335 336 336 338 339 340 342 343 345 345 345 345 347 349 352 359 6 10 14 19 23 24 24 23 22 23 23 22 22 22 21 22 22 22 22 22 20 18 15
319 322 324 326 327 326 324 322 322 322 322 321 320 320 320 320 321 322 323 325 326 326 326 327 326 327 329 330 332 335 336 337 338 338 338 340 341 343 344 345 344 345 348 351 357 5 9 14 19 23 26 27 25 22 20 19 18 18 19 19 19 20 21 21 20 20 19 17 14
320 323 326 328 328 327 325 323 322 322 322 322 321 321 321 322 324 324 325 326 327 328 328 327 327 327 328 330 332 335 337 338 339 340 340 340 341 343 344 345 346 348 350 354 4 10 11 16 22 26 28 29 27 23 19 16 15 15 15 15 15 16 17 17 17 17 16 15 11
321 325 327 328 329 329 328 326 325 324 323 323 323 323 324 325 326 327 328 329 330 330 329 328 327 328 328 330 332 334 336 338 339 341 342 343 343 344 345 345 348 350 351 356 10 15 13 17 23 28 31 31 29 24 19 16 14 14 13 12 11 11 11 13 13 14 13 11 7
324 327 329 330 331 331 331 329 328 326 325 325 325 326 326 328 329 330 331 331 331 330 330 330 329 329 330 331 331 333 334 336 338 340 343 345 346 346 346 346 348 350 351 355 13 22 19 19 23 28 32 33 31 26 21 17 16 14 13 11 9 8 7 8 10 10 9 9 6
325 328 330 332 334 335 334 332 330 328 327 327 327 328 329 330 331 332 332 332 331 331 331 330 330 330 330 329 330 333 335 336 337 338 341 344 346 347 346 345 347 348 350 357 17 27 25 25 26 28 32 34 32 28 23 20 18 16 14 11 7 4 3 3 4 4 4 6 5
326 328 331 334 336 337 337 335 332 330 329 329 329 329 331 332 333 333 332 331 332 333 333 330 330 330 330 329 331 334 336 336 336 337 339 340 343 344 344 343 343 345 348 357 17 28 26 28 29 29 31 33 32 28 23 19 17 15 13 10 6 2 359 357 355 355 356 359 1
326 329 332 335 338 340 340 337 334 331 330 330 329 330 332 333 333 332 331 331 332 333 332 330 329 329 329 329 331 333 335 335 335 335 336 337 339 340 341 340 340 341 343 351 6 20 25 26 30 30 30 31 31 27 22 16 13 11 9 7 4 0 357 354 352 351 352 353 354
325 328 332 335 339 341 341 339 335 332 331 330 330 331 332 333 332 330 330 330 332 331 329 328 329 330 330 329 329 331 333 333 333 333 333 335 336 337 337 337 338 338 339 342 351 6 20 22 27 30 31 31 31 28 23 17 11 9 7 5 3 1 358 356 354 353 352 351 352
324 328 332 336 340 342 342 339 336 333 332 331 330 331 331 332 331 330 330 331 331 328 326 327 329 329 329 328 327 328 330 332 332 332 332 333 334 335 335 335 336 336 337 340 346 357 13 18 21 25 29 30 31 29 24 18 14 11 9 8 5 2 0 358 356 355 353 352 352
323 328 333 338 341 342 342 340 337 335 333 332 331 331 331 331 331 330 330 329 327 324 323 325 327 327 327 326 326 327 328 330 331 331 331 332 332 332 332 333 333 335 336 339 344 349 358 10 13 18 24 27 31 31 27 21 16 12 10 9 7 5 3 0 358 356 355 353 351
325 330 335 339 342 343 342 340 337 336 335 334 333 331 330 328 327 327 326 325 321 319 320 322 323 324 325 326 326 326 326 327 328 330 330 330 330 330 329 330 331 332 334 336 339 341 345 356 4 8 12 19 27 29 27 23 17 12 9 8 8 7 6 4 1 358 357 354 351
326 332 336 339 341 343 343 340 338 337 336 336 334 332 329 326 325 324 324 324 320 317 317 319 321 323 324 325 325 326 325 326 326 327 328 328 328 327 327 328 328 330 332 334 336 339 341 344 353 358 0 5 17 25 27 22 16 10 6 4 5 6 7 7 4 2 0 358 352
327 332 335 339 341 343 342 340 339 338 338 337 336 333 330 327 325 325 325 325 320 316 315 316 318 320 322 323 324 324 324 324 324 325 326 327 326 326 326 326 326 327 330 331 334 337 338 339 343 349 351 350 357 12 22 21 15 8 2 360 359 360 2 4 5 5 4 1 354
325 331 335 338 341 342 341 339 338 338 338 338 337 335 332 328 326 324 324 322 319 315 314 313 314 316 318 320 321 322 322 322 322 323 324 324 324 324 325 325 324 325 327 329 332 334 336 337 339 342 344 342 340 347 3 16 14 7 360 356 354 353 355 357 360 2 2 1 355
324 330 333 337 339 340 339 338 337 337 338 338 337 336 334 330 326 323 320 318 316 314 312 312 312 313 315 317 319 320 320 320 320 320 320 321 321 322 322 323 322 323 326 328 330 332 334 336 337 338 338 338 333 332 340 358 7 5 359 353 351 349 349 349 350 352 356 359 356
322 327 330 333 336 337 337 336 336 336 336 337 336 336 334 331 328 324 321 318 315 314 313 312 312 312 313 315 317 318 319 319 318 318 318 318 319 319 320 320 321 322 324 327 328 330 332 334 335 336 336 334 327 322 324 335 352 358 356 351 347 346 345 344 342 342 347 354 354
316 321 326 330 332 333 334 334 334 334 335 335 335 334 334 332 330 327 323 320 316 314 313 313 312 312 312 313 315 315 316 317 317 316 316 316 316 317 318 318 318 320 322 324 326 328 329 330 333 335 336 331 321 313 312 318 333 347 351 348 344 341 340 339 338 337 340 345 347
309 315 321 326 328 329 330 331 331 331 332 333 333 334 335 334 331 327 324 321 316 313 312 311 310 310 310 311 312 312 313 315 315 315 315 314 314 315 315 315 316 317 318 321 323 324 326 327 329 333 334 329 320 308 303 307 318 333 343 343 340 336 335 335 334 333 334 337 338
302 310 316 322 324 325 325 326 325 326 328 331 332 334 334 333 330 327 325 322 317 313 310 309 308 308 309 310 311 311 312 314 315 315 315 315 314 314 314 313 313 314 316 317 319 321 322 323 325 329 331 328 321 308 297 297 306 320 333 337 335 331 329 329 329 328 329 331 333
296 304 311 317 319 319 319 320 321 324 328 330 331 332 331 329 327 327 326 324 319 314 310 308 307 307 308 308 309 310 311 313 315 316 317 316 316 315 314 312 312 313 314 315 317 318 319 320 321 324 326 327 321 310 296 289 295 308 322 329 329 326 323 322 323 323 324 326 329
290 299 306 311 314 314 314 316 319 324 328 330 330 329 328 327 326 327 327 325 321 317 313 310 308 308 308 308 307 308 310 313 315 317 318 318 318 316 315 313 312 312 313 315 316 316 316 317 318 320 323 324 322 314 299 284 286 297 311 321 322 319 316 315 317 318 319 321 323
Height
894 893 892 891 890 889 888 887 886 885 884 883 882 881 880 878 877 875 874 872 870 868 866 865 863 860 859 857 855 853 850 848 846 844 841 839 837 835 832 830 827 824 821 818 815 813 811 809 807 805 804 802 801 800 799 798 798 797 796 795 794 793 792 791 790 789 788 787 787
893 892 891 890 890 889 888 887 886 885 884 883 882 880 879 878 876 875 873 872 870 868 866 864 862 860 858 856 854 852 850 847 845 843 840 838 836 834 831 829 826 823 820 817 815 812 809 807 805 803 802 800 800 799 798 797 796 795 794 793 792 791 790 789 788 787 787 786 785
893 892 891 890 889 888 887 886 885 885 884 883 881 880 879 878 876 875 873 871 870 868 866 864 862 860 858 856 854 852 850 847 845 842 840 837 835 833 830 828 825 822 820 816 814 811 808 805 804 802 800 799 798 797 796 795 794 793 792 791 790 790 789 788 787 786 786 785 784
892 891 890 890 889 888 887 886 885 884 883 882 881 880 879 877 876 874 873 871 869 867 866 864 862 860 857 855 853 851 849 847 845 842 839 837 835 832 830 827 825 821 819 815 813 810 807 805 803 801 799 798 797 796 795 794 793 792 791 790 789 789 788 787 786 785 785 784 783
892 891 890 889 888 887 886 885 885 884 883 881 880 879 878 877 875 874 872 870 869 867 865 863 861 859 857 855 853 851 849 846 844 841 839 836 834 831 829 826 824 821 818 815 812 809 806 804 802 800 798 797 796 795 794 793 792 791 790 789 788 787 787 786 785 785 784 783 782
891 890 889 888 888 887 886 885 884 883 882 881 880 879 878 876 875 873 872 870 868 866 865 863 861 859 857 855 853 850 848 845 843 841 838 836 834 831 828 826 823 820 817 815 812 809 806 804 802 800 798 796 795 794 793 791 790 790 789 788 787 787 786 785 784 783 782 781 780
890 890 889 888 887 886 885 885 884 882 881 880 879 878 877 876 874 873 871 870 868 866 864 862 860 859 856 854 852 850 848 845 843 840 838 835 833 831 828 825 823 820 817 814 811 809 806 804 802 800 797 796 794 793 791 791 790 789 788 787 787 786 785 784 783 782 781 780 779
890 889 888 887 886 885 885 884 883 882 881 880 879 878 876 875 874 872 870 869 867 865 864 862 860 858 856 854 852 850 848 845 843 840 838 835 833 830 828 825 822 820 817 814 812 809 807 804 802 800 797 795 794 792 791 790 789 788 787 786 786 785 784 783 782 781 780 778 778
889 888 887 886 886 885 884 883 882 881 880 879 878 877 876 875 873 871 870 868 866 865 863 861 860 858 856 854 852 850 847 845 842 840 838 835 833 830 828 825 822 820 817 814 812 810 807 805 803 800 798 796 794 792 790 789 788 787 786 785 785 784 783 782 781 779 778 777 776
889 888 887 886 885 885 883 882 881 880 880 878 877 876 875 874 872 871 869 868 866 864 863 861 859 857 855 853 851 849 847 845 842 840 838 835 833 831 828 825 823 820 817 815 812 810 808 805 803 801 799 796 794 792 790 788 787 786 785 785 784 783 782 781 780 778 777 775 775
888 887 886 886 885 884 883 882 880 880 879 878 876 875 874 873 872 870 869 867 865 864 862 860 859 857 855 853 851 849 847 845 842 840 838 835 833 831 829 826 823 820 818 815 813 811 808 806 804 802 800 797 795 792 790 788 787 786 785 785 784 783 781 780 779 777 776 774 773
888 887 886 885 884 883 882 881 880 879 878 877 876 875 873 872 871 870 868 866 865 863 861 860 858 856 855 853 851 849 847 845 842 840 838 836 833 831 829 826 824 821 818 815 814 812 809 807 805 802 800 798 795 793 791 789 787 786 785 785 783 782 781 780 778 777 775 774 772
887 886 885 885 884 882 881 880 879 878 877 876 875 874 873 871 870 869 867 866 864 862 860 859 857 856 854 852 850 849 846 845 842 840 838 836 833 831 829 826 824 821 818 816 815 813 810 808 805 803 801 799 797 795 792 790 788 787 786 785 784 783 781 780 778 777 775 774 773
886 886 885 884 883 882 881 880 878 877 876 875 874 873 872 870 870 868 867 865 864 862 860 858 857 855 854 852 850 848 846 845 842 840 838 836 833 831 829 826 824 821 819 817 815 814 811 809 806 804 802 800 798 796 794 792 790 789 787 786 785 784 782 780 779 777 776 774 773
886 885 884 883 882 881 880 879 878 877 876 875 874 872 871 870 869 867 866 865 863 861 860 858 856 855 853 851 850 848 846 844 842 840 838 835 833 831 829 826 824 821 819 817 816 815 812 810 807 805 803 801 799 797 795 794 792 790 789 787 786 785 783 781 780 778 777 775 774
885 885 884 883 882 880 880 878 877 876 875 874 873 872 870 869 868 867 865 864 862 860 859 857 856 854 852 851 849 847 845 844 842 840 838 835 833 831 829 826 824 822 820 817 816 815 813 810 808 806 804 802 800 798 796 795 793 792 790 789 787 786 784 783 781 779 778 776 775
885 884 883 882 881 880 879 878 876 875 874 873 872 871 870 869 867 866 865 863 862 860 858 857 855 854 852 850 849 847 845 843 841 840 838 835 833 831 829 827 825 822 820 818 817 815 813 811 809 807 805 803 800 799 797 795 794 792 791 790 788 786 785 784 782 780 779 777 776
884 883 882 881 880 879 878 877 876 875 873 872 871 870 869 868 866 865 864 862 861 860 858 856 855 853 851 850 848 847 845 843 841 839 838 835 834 831 829 827 825 823 820 819 817 816 814 811 810 807 805 804 801 800 798 796 795 793 791 790 789 787 785 784 783 781 780 778 777
883 882 882 880 880 878 877 876 875 874 873 871 870 869 868 867 866 865 863 861 860 859 857 855 854 853 851 850 848 846 845 843 841 839 837 835 834 831 829 827 825 823 821 819 818 816 814 812 810 808 806 804 802 800 799 797 795 794 792 791 789 788 786 785 783 782 781 780 778
883 882 881 880 879 877 876 875 874 873 872 870 870 868 867 866 865 864 862 861 860 858 857 855 854 852 850 849 847 845 844 842 841 839 837 835 833 831 829 827 825 823 821 819 818 817 815 812 810 808 806 804 803 801 799 798 796 795 793 792 790 789 787 786 784 783 782 780 780
882 881 880 879 878 877 875 874 873 872 871 870 869 867 866 865 864 863 861 860 859 857 856 855 853 851 850 848 846 845 843 842 840 839 837 835 833 831 830 827 825 823 820 819 818 817 815 813 810 808 806 805 803 801 800 798 797 795 794 792 791 790 788 787 785 784 782 781 780
881 880 879 878 877 876 875 874 872 871 870 869 868 866 865 864 863 862 860 859 858 857 855 854 852 851 850 848 846 844 843 841 840 838 837 835 833 831 830 827 825 822 820 819 818 817 815 813 811 809 807 805 803 802 800 799 797 796 795 793 792 790 789 787 786 785 783 782 781
880 879 878 877 876 875 874 873 871 870 869 868 867 865 865 863 862 861 860 859 857 856 855 853 852 850 849 847 846 844 842 841 839 838 836 835 833 831 829 828 825 823 820 819 819 817 815 813 811 809 807 805 804 802 801 800 798 796 795 794 792 791 789 788 787 785 784 783 781
879 878 877 876 875 874 873 872 870 869 868 867 866 865 864 862 861 860 859 858 856 855 854 853 851 850 848 847 845 844 842 840 839 837 835 834 832 830 829 827 825 823 821 820 819 818 816 814 812 810 808 806 804 803 802 800 799 797 795 794 793 791 790 789 787 786 785 783 782
878 877 876 875 874 873 872 871 870 868 867 866 865 864 863 861 860 859 858 857 856 855 853 852 850 849 848 846 845 844 842 840 839 837 835 833 831 830 828 827 825 823 821 820 819 818 816 815 812 810 808 806 805 804 802 801 800 798 796 795 793 792 790 789 788 787 785 784 783
877 876 875 875 874 872 871 870 869 867 866 865 864 863 862 861 860 859 857 856 855 854 853 851 850 849 847 846 845 843 842 840 839 837 835 833 831 830 828 827 825 823 822 821 819 818 816 815 813 811 809 807 805 804 803 801 800 799 797 795 794 793 791 790 788 787 786 785 783
876 875 875 874 873 871 870 869 868 866 865 864 863 862 861 860 859 858 857 856 855 853 852 851 850 848 847 845 844 843 841 840 838 837 835 834 832 830 828 827 825 823 822 821 820 818 817 815 813 811 809 807 806 805 803 802 800 799 798 796 795 793 792 790 789 788 786 785 783
875 875 874 873 872 870 869 868 867 866 865 863 862 861 860 859 858 857 856 855 854 853 852 851 850 848 847 845 844 842 841 840 838 836 835 833 832 830 829 827 825 823 822 821 820 818 817 815 814 811 809 807 806 805 804 802 801 800 798 797 795 794 792 791 790 788 786 785 784
875 874 873 872 871 870 868 867 866 865 864 863 861 860 860 859 858 857 855 855 854 852 851 850 849 848 846 845 843 842 840 839 838 836 835 833 831 830 828 827 825 823 822 821 820 818 817 815 814 812 810 808 806 805 804 803 802 800 799 797 796 795 793 791 790 788 787 785 784
874 873 872 871 870 869 868 866 865 864 863 862 861 860 859 858 857 856 855 854 853 852 851 850 849 847 846 845 843 841 840 839 837 836 834 833 831 830 828 826 825 823 821 820 819 818 816 815 814 812 810 808 806 805 804 803 802 801 800 798 797 795 793 792 790 789 787 786 785
873 872 871 870 869 868 867 866 865 864 862 861 860 859 858 857 856 855 854 853 852 851 850 850 848 847 845 844 843 841 840 838 837 835 834 832 831 829 828 826 825 823 821 820 819 817 816 815 814 812 810 808 806 804 804 803 802 801 800 799 797 795 794 792 791 789 788 786 785
872 871 870 869 868 867 866 865 864 863 862 860 860 858 857 856 855 855 854 853 852 851 850 849 847 846 845 843 842 840 839 838 836 835 833 832 830 829 827 825 824 822 821 820 818 817 815 814 813 812 810 809 806 804 803 802 802 801 800 799 797 796 794 793 791 790 788 786 785
871 870 870 869 868 867 865 865 863 862 861 860 859 858 857 856 855 854 853 852 851 850 849 848 847 845 844 843 841 840 838 837 835 834 833 831 830 828 826 825 823 822 820 819 818 817 815 814 812 811 810 809 807 805 803 802 801 801 800 799 797 796 795 793 791 790 788 786 785
870 869 869 868 867 866 865 864 863 862 860 859 858 857 856 855 854 853 852 851 850 849 848 847 846 845 844 842 841 840 838 836 835 833 832 830 829 827 826 824 823 821 820 819 817 816 815 813 812 811 810 808 807 805 803 801 800 800 799 798 797 796 794 793 791 790 788 787 785
869 869 868 867 866 865 864 863 862 861 860 859 858 856 855 854 853 852 851 850 849 848 847 846 845 844 843 842 840 839 837 836 834 833 831 830 828 827 825 824 822 820 819 818 817 815 814 813 811 810 809 808 807 805 803 801 800 799 798 798 796 795 794 792 791 790 788 786 785
868 868 867 866 865 865 864 863 861 860 859 858 857 856 855 854 852 851 850 849 848 847 846 845 844 843 842 841 840 838 837 835 834 832 830 829 827 826 824 822 821 820 818 817 816 815 814 812 811 809 808 807 806 805 803 801 799 798 797 797 796 795 793 792 790 789 788 786 785
868 867 866 865 865 864 863 862 861 860 859 857 856 855 854 853 852 851 850 849 848 846 845 844 843 842 841 840 839 837 836 835 833 831 830 828 827 825 824 822 820 819 817 816 815 814 813 811 810 809 808 806 805 804 802 801 799 797 796 795 795 794 793 791 790 789 787 786 785
867 866 865 865 864 863 862 861 860 859 858 857 856 855 854 852 851 850 849 848 847 846 845 843 842 841 840 839 838 836 835 834 832 831 829 828 826 825 823 821 819 818 816 815 814 813 812 810 810 808 807 805 804 803 802 800 798 796 795 794 794 793 792 791 790 788 787 785 784
866 865 864 864 863 862 861 860 860 858 857 856 855 854 853 852 850 850 848 847 846 845 844 842 841 840 839 838 837 835 834 833 831 830 829 827 825 824 822 821 819 817 815 814 813 812 811 810 808 807 806 805 803 802 801 799 797 795 794 793 792 792 791 790 789 787 786 785 784
865 864 864 863 862 861 860 860 859 858 857 855 854 853 852 851 850 849 848 846 845 844 843 842 840 839 838 837 836 835 833 832 830 829 828 826 825 823 822 820 818 816 815 814 812 811 810 808 807 806 805 804 802 800 799 798 796 795 793 792 791 790 790 789 787 786 785 784 783
864 863 863 862 861 861 860 859 858 857 856 855 854 853 851 850 849 848 847 846 845 843 842 841 840 839 837 836 835 834 832 831 830 829 827 826 824 823 821 820 818 816 815 813 811 810 809 807 806 805 804 803 801 800 798 797 795 794 792 791 790 789 788 787 786 785 784 783 781